Tracking 28764 objects as of 13-Apr-2024
HD Live streaming from Space Station
objects crossing your sky now

ARIANE 5 R/B

Track ARIANE 5 R/B now!


NORAD ID: 42816
Int'l Code: 2017-040C
Perigee: 253.8 km
Apogee: 33,940.8 km
Inclination: 2.7 °
Period: 596.3 minutes
Semi major axis: 23468 km
RCS: Unknown
Launch date: June 28, 2017
Source: France (FR)
Launch site: FRENCH GUIANA (FRGUI)

Note: This is a ROCKET BODY
Your satellite tracking list
Your tracking list is empty




NASA's NSSDC Master Catalog

Two Line Element Set (TLE):
1 42816U 17040C   24103.09102977  .00007234  00000-0  17781-2 0  9990
2 42816   2.7056  84.8484 7177111 121.9813 327.4939  2.41479557 57697
Source of the keplerian elements: AFSPC